Wind_Speed
20 20 20 19 19 19 19 19 19 20 20 21 21 21 22 22 23 24 24 25 26 26 26 26 27 27 28 29 30 31 31 32 32 33 33 33 33 34 33 33 33 33 32 32 32 31 29 29 31 32 31 31 31 31 30 29 28 28 28 28 27 28 28
21 21 21 20 20 20 19 19 18 19 20 20 21 22 22 23 24 25 25 26 27 27 28 28 28 29 29 29 30 31 31 32 32 32 33 33 33 34 34 34 34 34 34 34 33 33 32 31 31 32 33 32 32 33 32 30 29 29 29 28 27 28 29
22 22 22 21 21 20 19 19 19 19 20 21 22 22 23 24 24 25 26 27 27 28 28 29 29 30 30 30 31 32 33 33 33 34 34 34 34 34 34 34 34 35 35 35 35 34 34 33 32 33 34 33 33 34 34 32 30 30 30 30 28 27 29
22 21 21 21 21 20 20 21 20 20 21 21 22 23 24 24 24 25 25 26 26 27 28 29 29 30 31 31 32 32 33 34 35 35 36 35 35 35 35 35 35 35 35 35 35 35 35 35 34 34 35 35 34 34 35 34 32 31 30 30 30 29 28
21 21 21 21 21 21 22 22 22 22 22 22 23 23 24 24 24 24 25 25 26 26 27 28 29 30 30 31 32 32 33 34 35 36 37 37 37 37 37 37 36 36 37 37 36 36 36 36 35 34 35 36 35 35 36 36 35 33 32 31 31 31 29
21 21 21 22 22 23 23 23 23 23 23 24 24 24 24 24 25 25 25 25 26 26 27 27 28 29 30 31 32 32 33 34 35 36 37 38 38 39 38 38 39 38 38 38 38 38 38 38 37 36 36 36 36 36 36 37 36 36 35 33 32 32 31
21 21 22 23 23 24 24 25 25 26 26 26 26 26 26 26 27 27 27 27 27 27 28 28 29 30 31 31 32 33 34 34 36 36 37 38 39 40 40 40 40 40 40 40 40 40 40 40 39 39 38 37 37 37 36 37 37 37 37 36 35 34 33
22 22 23 23 24 24 25 26 27 28 28 28 29 29 29 29 29 30 30 30 29 29 29 30 31 31 32 33 33 34 35 35 36 37 38 39 39 40 41 41 41 41 42 42 42 42 43 42 42 41 41 40 39 38 37 37 37 37 38 38 37 36 36
23 24 24 24 25 25 26 28 29 30 31 31 31 31 32 31 32 32 32 32 32 32 32 32 33 33 34 35 36 37 37 38 38 39 39 39 40 40 41 41 42 42 42 42 42 43 44 44 44 44 43 43 41 40 39 38 37 38 39 39 38 37 38
24 24 24 25 26 26 27 28 30 31 32 33 33 33 33 33 34 34 34 34 34 34 34 35 35 35 36 37 38 39 40 41 41 41 41 41 41 41 42 42 43 43 43 42 43 43 44 44 45 46 45 45 45 43 41 39 37 37 39 41 40 39 39
24 24 25 26 26 27 28 28 30 31 32 33 33 34 34 34 34 35 35 35 36 36 36 36 36 37 38 39 40 41 41 42 42 42 41 41 42 42 42 43 43 43 43 43 43 44 44 44 45 46 46 47 47 46 45 43 40 38 39 41 41 41 40
24 25 25 26 27 27 28 29 29 30 31 31 32 33 33 34 35 36 37 37 38 38 38 38 38 39 40 41 42 42 42 42 42 41 41 42 42 42 42 42 42 42 43 43 44 44 44 45 45 46 46 47 48 48 48 47 44 41 41 41 41 42 42
24 24 25 26 26 27 28 29 30 30 31 31 31 32 33 35 36 37 38 38 39 39 39 39 40 41 42 43 43 43 43 42 42 42 42 41 41 41 41 42 42 42 42 43 44 44 45 45 46 46 47 47 48 49 49 50 49 45 43 44 43 43 44
23 24 25 26 27 28 29 30 31 32 33 33 34 34 35 36 37 38 39 39 39 40 40 41 42 43 43 44 44 43 43 42 41 41 41 41 41 41 41 41 42 42 43 43 44 45 46 46 47 47 48 48 49 50 50 51 51 49 45 45 46 45 45
24 25 26 28 29 30 31 33 34 35 36 36 37 37 37 38 39 39 40 40 40 40 41 42 43 44 44 44 43 43 42 42 42 41 41 41 41 41 42 42 43 43 44 45 45 46 47 47 48 48 49 49 50 50 51 52 52 51 49 47 48 48 47
27 28 29 30 32 33 34 35 36 36 37 37 37 37 38 38 39 40 40 40 41 41 42 44 45 44 44 43 43 42 42 42 42 42 42 42 43 43 44 44 45 45 46 46 47 47 48 48 49 49 50 51 51 51 52 53 53 53 52 49 49 50 50
29 31 32 33 34 35 36 36 36 37 37 36 36 37 38 38 39 40 40 41 42 42 44 45 45 44 43 42 42 42 42 42 42 43 44 44 45 45 45 46 46 46 46 47 47 48 49 49 50 50 51 51 52 52 53 54 54 55 54 52 50 51 52
31 33 34 34 35 36 36 37 37 36 36 35 36 36 37 38 39 40 41 41 42 44 45 45 44 43 42 43 43 42 43 43 44 45 45 46 46 46 46 46 46 46 46 47 47 48 49 49 50 51 51 51 52 53 53 54 55 55 56 55 53 53 53
33 34 35 36 36 37 37 37 36 35 35 35 36 36 37 38 39 40 41 42 44 44 44 43 42 42 42 43 43 43 44 45 45 46 46 46 46 46 46 46 47 47 47 48 48 49 49 50 51 51 52 53 53 54 54 54 55 56 56 57 56 55 55
34 35 36 36 37 38 38 37 36 35 35 35 35 36 38 39 39 40 41 43 43 43 42 42 42 42 42 43 44 44 45 45 46 46 46 46 46 46 46 47 47 47 48 49 49 50 50 51 51 52 53 54 54 55 56 56 56 57 57 57 57 57 56
34 35 37 37 38 38 38 37 36 36 36 36 36 37 38 39 40 41 41 42 41 41 41 41 42 42 43 44 44 45 45 45 45 45 45 46 46 46 46 47 47 48 48 49 50 51 52 52 53 53 54 54 55 56 57 57 58 58 59 59 59 59 58
35 36 37 37 37 37 37 37 37 37 37 36 36 37 38 39 40 40 39 39 39 39 40 41 42 43 44 44 44 45 45 45 45 44 45 45 45 46 46 47 47 48 48 49 50 51 52 53 54 55 56 56 56 56 57 58 58 59 60 60 61 61 60
36 36 35 35 34 35 36 37 38 38 38 38 37 38 38 38 37 36 36 37 38 39 40 41 42 43 43 44 44 44 44 44 44 44 44 45 45 46 47 47 48 48 49 49 50 51 52 53 55 56 58 59 59 59 59 59 59 60 61 61 62 62 62
35 34 33 32 32 33 33 33 34 37 38 38 37 35 35 34 33 34 35 36 38 39 40 41 42 42 43 43 43 43 43 43 43 44 44 45 45 46 47 48 48 49 49 49 50 51 52 53 54 55 57 59 61 62 63 62 62 61 61 62 62 63 63
33 32 31 31 32 32 30 29 30 33 33 32 31 31 31 32 33 34 35 36 38 39 40 41 41 41 42 42 42 42 42 43 43 44 44 45 46 46 47 47 48 49 49 50 50 51 52 53 54 55 56 58 60 61 63 65 65 65 64 63 63 63 64
33 32 31 30 29 28 28 27 28 28 28 28 29 30 31 32 33 34 35 36 37 38 39 40 40 41 41 41 41 42 42 43 43 44 45 45 46 46 46 47 47 48 49 50 51 52 53 54 55 56 57 59 60 61 63 64 66 67 67 67 66 65 64
32 30 30 29 27 26 26 26 26 26 27 28 29 30 31 32 33 34 35 36 37 38 39 39 39 40 40 40 41 42 42 43 44 44 45 45 45 46 46 46 47 48 49 50 51 52 53 54 56 57 59 60 62 63 64 65 65 66 68 69 69 68 67
30 29 28 27 25 25 25 25 25 26 26 27 29 30 31 32 33 34 35 36 37 38 38 38 39 39 40 40 41 42 43 43 44 44 44 45 45 45 46 47 47 48 49 50 51 52 53 55 57 58 60 62 63 63 65 66 66 66 66 67 68 69 69
27 27 26 25 24 23 23 24 25 25 26 27 29 30 31 32 33 34 35 36 36 37 37 37 38 39 39 40 41 42 43 43 44 44 44 45 45 45 46 46 47 48 49 50 51 52 54 56 57 59 60 61 62 63 64 65 66 66 66 66 67 68 68
25 25 24 23 23 23 23 24 24 25 26 27 28 30 31 32 33 33 34 35 35 36 36 37 38 38 39 40 41 42 42 43 43 43 43 44 44 44 44 45 46 46 48 49 51 52 54 55 55 57 58 59 60 61 62 62 63 62 62 62 63 64 66
23 23 23 23 23 23 23 24 24 25 26 27 29 30 31 31 32 33 33 34 34 35 36 37 38 38 39 40 41 41 42 42 42 42 42 42 42 42 42 43 44 45 47 49 51 52 52 52 53 55 57 58 59 57 55 54 52 51 50 51 52 54 57
23 22 22 22 22 23 23 24 25 25 26 28 29 30 30 31 31 32 33 33 34 35 36 36 37 38 39 39 40 41 41 41 41 40 40 40 40 41 41 42 43 45 47 48 49 50 50 51 53 55 57 58 54 49 45 44 42 41 40 38 39 42 46
22 22 22 22 22 23 24 24 25 26 27 28 29 29 30 31 31 32 32 33 34 35 35 36 37 38 38 39 39 39 40 39 39 39 38 38 39 40 41 42 43 45 46 47 48 48 50 52 55 57 57 54 46 39 36 38 38 34 29 27 30 33 36
22 22 22 23 23 23 24 24 25 26 27 28 29 30 30 31 31 32 33 33 34 35 35 36 37 37 38 38 38 38 38 38 37 37 37 38 39 39 40 42 43 44 45 46 47 49 51 54 57 58 54 46 38 33 33 35 33 25 21 24 28 29 30
22 22 23 23 23 24 24 25 26 27 29 29 30 30 30 31 31 32 32 33 34 35 36 36 37 37 37 37 37 37 37 36 36 36 37 38 39 40 41 42 43 44 44 45 47 50 52 55 58 56 48 37 31 29 31 33 28 22 23 26 26 25 25
22 23 23 23 23 24 25 26 27 28 29 29 29 30 30 31 31 31 32 33 34 35 35 36 36 36 36 37 37 37 36 35 35 36 37 38 39 40 41 42 42 43 44 45 47 49 52 55 58 55 44 32 26 27 30 32 28 25 26 27 25 23 22
23 23 23 23 24 25 26 27 28 29 29 29 29 30 30 30 31 32 32 33 34 34 34 35 35 35 36 36 36 35 34 34 35 36 37 38 39 40 40 41 41 42 43 45 47 49 52 55 58 53 42 30 24 25 29 32 29 25 26 25 22 19 17
Wind_Direction
265 268 271 273 275 277 279 280 283 285 287 289 291 294 295 296 297 297 298 297 298 298 298 298 298 298 298 298 298 298 298 299 299 299 299 300 300 300 300 300 300 301 301 301 301 300 299 299 300 301 302 301 302 304 306 308 309 309 309 307 306 305 303
266 268 269 271 272 274 277 279 282 285 288 292 294 295 297 298 298 298 298 298 298 298 298 298 297 297 297 297 297 297 296 296 297 297 297 297 298 298 298 298 298 298 298 298 298 299 298 297 297 298 299 299 300 301 303 305 307 308 308 308 308 307 305
265 267 267 269 272 274 277 280 282 286 289 292 293 294 295 296 297 297 297 297 297 297 298 297 297 297 297 296 296 296 295 295 295 295 295 295 295 295 295 295 295 296 296 296 296 297 297 296 296 295 296 296 297 298 299 301 303 305 306 306 307 306 303
266 267 269 272 274 277 280 282 284 286 289 291 291 292 293 294 295 295 296 297 298 298 298 298 298 297 297 296 296 295 295 294 294 294 294 294 294 294 294 293 293 293 292 292 293 293 294 294 293 293 293 293 294 294 295 296 298 299 300 301 303 302 301
269 272 274 276 278 280 281 283 285 286 289 290 291 292 292 293 295 296 297 298 299 300 299 300 299 298 298 297 296 295 294 293 292 292 292 292 292 292 292 292 291 291 291 290 290 290 290 290 290 290 290 290 290 291 291 292 293 294 295 295 297 298 299
272 275 277 279 280 281 282 283 285 287 289 291 292 293 293 295 297 298 299 300 300 301 300 301 300 300 299 298 297 296 295 295 294 293 293 292 292 291 291 291 290 290 289 289 289 288 287 287 288 287 287 288 288 288 288 289 290 291 292 292 292 294 297
274 277 279 280 281 282 283 286 288 290 292 294 294 295 296 297 299 300 301 302 302 302 302 302 302 302 302 301 300 299 298 297 296 295 294 293 293 292 292 291 290 290 289 289 288 288 287 286 286 285 285 285 285 286 285 286 287 288 289 289 290 290 292
274 276 278 279 281 283 286 289 292 294 296 297 297 298 299 300 301 302 303 303 303 303 303 304 304 304 304 303 302 300 299 298 297 295 294 293 292 291 291 290 290 289 289 288 288 287 287 286 284 284 283 282 282 283 283 284 285 286 286 286 287 287 287
273 275 276 278 281 284 288 291 294 296 297 298 298 299 300 301 302 303 303 304 305 304 304 305 305 306 305 305 304 303 302 301 299 297 296 294 292 291 290 289 288 288 287 286 286 285 285 285 284 284 282 281 279 279 279 280 282 283 284 284 284 283 283
273 275 277 280 283 286 289 292 295 296 296 296 297 297 299 300 300 301 302 303 303 303 304 304 305 306 306 306 305 305 304 302 301 299 297 296 294 293 291 290 289 288 287 286 285 284 283 283 283 283 283 281 280 277 276 275 276 279 281 282 282 282 281
273 276 279 282 284 286 289 292 294 296 296 295 295 295 296 297 298 299 299 301 301 301 302 303 304 305 306 306 305 304 303 302 300 299 297 296 295 294 292 291 290 289 288 287 286 285 283 282 282 282 281 281 280 279 277 274 273 274 277 279 280 281 280
275 278 280 282 283 285 288 290 293 294 295 295 294 294 294 295 295 296 297 298 299 300 300 302 303 304 305 304 304 304 303 301 299 297 296 295 295 294 292 291 290 289 289 288 287 286 285 283 282 281 281 280 279 278 277 275 273 273 274 275 276 278 278
276 278 280 282 284 286 288 289 290 291 292 293 292 292 292 292 293 293 294 296 296 298 299 301 303 303 303 303 303 303 301 300 298 296 295 295 294 293 293 292 291 291 290 289 288 287 286 285 284 282 281 280 279 278 277 276 274 272 273 273 273 274 275
277 278 281 284 286 287 287 287 288 288 289 290 290 290 290 289 290 290 291 293 294 295 297 300 301 301 301 301 301 301 300 298 297 296 295 294 294 293 293 292 292 292 291 290 289 288 287 286 285 283 282 280 280 279 277 276 274 272 272 272 272 272 273
278 279 282 285 287 287 287 286 286 285 285 286 286 286 286 286 287 288 289 291 292 294 297 299 300 300 300 300 300 300 299 298 298 297 297 296 295 295 294 294 293 293 292 290 289 288 287 286 284 283 282 281 280 279 278 277 275 273 271 271 271 271 271
279 281 283 285 286 286 286 285 284 283 282 282 283 284 284 285 286 287 288 289 291 294 297 298 299 299 299 300 300 299 299 299 299 299 299 298 298 297 297 296 295 294 293 292 290 289 287 286 284 283 282 281 279 278 278 277 275 274 272 270 270 270 269
279 281 284 285 285 286 286 285 284 282 282 282 283 283 283 284 285 285 286 289 292 294 296 297 298 299 300 300 300 300 300 300 301 300 300 300 299 298 297 296 295 294 293 292 291 290 288 287 285 284 282 281 280 278 277 276 275 274 273 270 269 268 268
279 282 284 285 285 286 286 285 284 284 283 283 283 283 282 282 283 284 286 289 292 294 296 297 298 299 300 300 300 300 301 301 301 301 301 300 299 299 298 297 296 295 294 293 292 291 289 288 287 286 284 282 281 280 278 277 276 274 273 271 269 267 266
280 282 284 285 286 286 286 285 284 283 283 283 282 281 281 281 282 284 287 290 292 294 295 297 298 299 299 300 300 301 302 302 301 301 301 300 300 299 299 298 297 297 296 294 293 292 290 289 288 287 286 284 283 281 280 278 277 275 273 272 270 268 266
281 283 284 285 285 285 284 283 282 282 282 282 281 280 281 282 283 285 287 290 292 294 296 297 298 299 299 300 301 301 301 301 301 301 301 301 301 300 299 299 298 297 296 295 293 292 290 289 288 287 286 285 283 282 281 279 278 276 274 272 271 269 267
284 284 284 284 283 283 282 282 281 281 281 280 279 279 280 282 283 285 288 290 293 295 297 298 299 299 300 301 301 301 302 302 301 301 301 301 300 300 299 299 298 297 296 295 295 294 292 291 289 288 287 285 284 283 281 280 278 277 275 273 271 270 267
284 284 284 284 283 282 282 281 280 279 279 278 277 277 278 280 282 285 288 291 294 296 297 298 299 299 300 301 301 301 301 302 302 302 301 301 300 300 300 299 299 298 298 297 297 296 295 294 293 292 290 288 287 285 283 281 280 278 276 274 272 270 268
283 283 284 284 284 283 282 280 278 277 276 274 274 275 277 279 283 287 290 293 295 296 297 298 298 299 300 300 301 301 301 302 302 302 302 302 302 302 302 301 301 301 300 299 298 297 296 296 295 294 293 292 290 288 286 283 282 280 278 276 274 272 269
282 283 284 284 284 285 285 283 281 279 277 276 276 278 281 284 287 290 292 294 295 296 297 298 299 300 300 301 301 302 302 303 303 304 304 304 304 304 304 304 303 302 301 300 299 298 298 297 296 295 294 293 292 291 289 287 284 282 280 277 276 273 271
281 283 284 286 288 287 285 286 285 282 280 280 282 284 287 289 291 293 294 295 295 296 297 298 300 300 301 302 302 303 304 305 305 306 306 306 306 306 305 305 304 303 302 302 301 300 299 298 297 296 295 294 293 291 290 289 287 284 282 279 277 275 273
281 283 286 290 291 286 283 284 284 283 284 285 287 289 291 292 293 294 295 295 296 298 299 300 301 301 302 304 305 306 307 307 308 308 308 308 307 306 305 305 304 304 303 303 302 301 300 299 298 297 296 295 293 292 290 289 287 286 284 281 278 275 273
282 285 288 290 289 284 281 282 283 283 286 288 290 292 293 293 294 294 296 297 298 299 300 301 302 303 305 306 307 308 308 308 308 308 308 307 307 306 306 305 305 304 304 303 303 302 301 300 300 299 298 297 295 294 292 290 288 286 284 282 280 277 273
285 286 287 287 286 282 282 283 285 287 289 291 292 293 293 294 295 296 297 299 299 300 301 303 304 306 307 308 308 309 309 309 309 308 308 308 308 308 307 307 307 307 306 306 306 305 304 303 302 301 300 299 298 296 294 292 289 287 284 282 280 277 274
285 285 285 284 284 283 284 286 288 290 291 292 292 292 293 295 296 297 298 299 300 302 303 305 307 308 309 309 309 310 310 310 310 310 310 310 310 311 311 311 311 310 310 309 309 308 308 307 306 305 303 301 300 298 296 293 291 288 285 282 279 277 274
283 283 282 283 283 285 287 289 291 292 292 291 292 293 294 296 297 298 299 300 302 304 306 307 308 309 309 310 310 310 311 311 311 311 312 312 313 314 314 314 314 313 313 312 312 312 312 310 309 307 305 303 302 300 297 294 291 289 286 283 279 276 273
281 280 281 283 285 287 288 290 291 291 291 292 293 295 296 297 298 299 301 303 305 307 308 308 309 310 310 311 311 311 312 312 313 314 315 316 317 317 317 317 316 316 316 316 316 315 314 312 311 310 309 308 307 304 300 296 294 292 289 286 283 280 276
280 280 282 284 286 288 290 291 292 292 293 294 295 296 297 298 300 302 304 306 306 307 308 309 310 310 311 312 312 313 313 314 315 317 318 319 320 320 320 320 319 320 320 319 318 317 317 318 318 318 317 315 312 308 304 302 301 298 293 289 287 283 280
280 282 284 286 289 291 292 293 294 294 295 295 296 297 298 300 302 304 305 306 307 307 308 309 310 311 312 313 314 314 316 317 318 320 321 322 323 322 322 323 323 323 322 321 321 323 324 325 326 327 325 320 316 313 312 313 313 305 297 296 296 292 286
280 283 286 289 291 292 293 294 295 296 297 297 298 299 300 302 304 305 306 306 307 307 308 309 311 312 313 314 316 317 319 320 321 322 324 325 325 325 325 326 326 326 325 326 328 330 331 332 333 334 330 323 319 319 321 323 321 311 302 308 314 309 294
281 284 287 290 291 293 295 296 297 298 298 298 299 301 302 304 305 305 306 307 307 308 309 310 311 312 314 316 318 319 321 322 323 325 326 327 328 328 329 329 329 330 331 333 335 336 337 337 339 338 334 326 321 324 330 332 328 315 308 316 325 322 304
281 285 288 291 293 295 296 297 298 298 298 299 300 301 302 303 304 305 306 307 307 308 309 311 313 315 317 319 320 321 322 324 325 327 329 330 331 332 332 332 333 335 336 337 339 340 341 342 343 342 338 331 322 324 335 340 335 322 318 326 337 334 314
281 286 289 292 295 296 296 297 298 298 298 298 300 301 303 304 305 306 306 307 308 309 311 313 316 318 320 322 322 323 325 326 328 330 331 333 334 335 334 335 337 339 340 341 343 344 345 347 347 345 342 337 328 325 335 344 342 330 327 335 343 335 312
Height
5818 5819 5819 5820 5820 5820 5820 5820 5820 5820 5819 5819 5819 5818 5818 5817 5817 5816 5815 5815 5814 5813 5812 5811 5810 5809 5808 5807 5805 5805 5804 5802 5801 5800 5799 5798 5797 5795 5794 5793 5792 5791 5790 5789 5787 5786 5786 5785 5783 5781 5780 5779 5777 5776 5775 5775 5774 5772 5771 5770 5769 5767 5766
5817 5818 5818 5818 5818 5818 5818 5818 5818 5818 5818 5817 5817 5817 5816 5816 5815 5814 5813 5812 5811 5810 5809 5808 5807 5806 5805 5804 5803 5802 5801 5800 5798 5797 5796 5795 5793 5792 5791 5790 5789 5787 5786 5785 5784 5783 5782 5782 5780 5779 5777 5776 5775 5773 5772 5773 5772 5770 5768 5767 5767 5765 5764
5816 5816 5816 5817 5817 5817 5817 5817 5817 5817 5816 5816 5815 5815 5814 5814 5813 5812 5811 5810 5809 5808 5807 5806 5805 5804 5803 5802 5800 5799 5798 5797 5795 5794 5793 5792 5790 5789 5788 5787 5785 5784 5783 5782 5780 5779 5778 5777 5777 5776 5774 5773 5773 5771 5769 5770 5769 5768 5766 5764 5764 5764 5762
5814 5814 5815 5815 5815 5815 5815 5815 5815 5815 5815 5814 5813 5813 5812 5812 5811 5810 5809 5808 5807 5806 5804 5803 5802 5801 5800 5799 5798 5796 5795 5793 5792 5791 5789 5788 5787 5786 5784 5783 5782 5780 5779 5778 5777 5776 5774 5773 5773 5772 5770 5770 5770 5768 5766 5766 5766 5765 5765 5763 5762 5761 5760
5812 5813 5813 5813 5813 5813 5813 5813 5813 5813 5813 5812 5811 5811 5810 5810 5809 5808 5807 5806 5805 5803 5802 5801 5799 5798 5797 5796 5794 5793 5791 5790 5788 5787 5786 5784 5783 5782 5780 5779 5778 5776 5775 5774 5773 5772 5771 5770 5769 5768 5767 5766 5766 5765 5763 5762 5762 5761 5761 5761 5759 5758 5757
5811 5811 5811 5812 5812 5812 5812 5811 5811 5811 5810 5810 5809 5809 5808 5807 5807 5806 5805 5803 5802 5801 5800 5798 5797 5795 5794 5792 5791 5790 5788 5786 5785 5783 5782 5780 5779 5778 5776 5775 5773 5772 5771 5769 5768 5767 5766 5765 5765 5764 5763 5762 5761 5762 5760 5759 5758 5757 5756 5756 5755 5754 5754
5809 5810 5810 5810 5810 5810 5809 5809 5808 5808 5808 5807 5807 5806 5805 5805 5804 5803 5802 5801 5799 5798 5797 5795 5794 5792 5791 5789 5788 5786 5785 5783 5781 5780 5778 5777 5775 5773 5772 5771 5769 5767 5766 5765 5764 5762 5761 5760 5760 5759 5759 5758 5757 5757 5756 5755 5755 5753 5752 5751 5751 5750 5750
5808 5808 5808 5808 5808 5808 5807 5807 5806 5806 5805 5804 5804 5803 5802 5802 5801 5799 5798 5797 5796 5794 5793 5792 5790 5789 5787 5786 5784 5783 5781 5780 5778 5777 5775 5773 5771 5770 5768 5766 5765 5763 5762 5760 5759 5758 5756 5755 5754 5754 5753 5753 5753 5752 5752 5751 5751 5750 5748 5747 5747 5746 5745
5806 5806 5806 5806 5806 5805 5805 5804 5803 5803 5802 5801 5800 5800 5799 5798 5797 5796 5794 5793 5792 5790 5789 5787 5786 5784 5783 5781 5780 5779 5777 5776 5774 5772 5771 5769 5767 5765 5764 5762 5760 5758 5757 5756 5754 5753 5751 5750 5749 5748 5747 5747 5747 5748 5748 5747 5747 5746 5744 5743 5743 5742 5741
5804 5804 5804 5804 5803 5803 5802 5801 5800 5800 5799 5798 5797 5796 5795 5795 5793 5792 5791 5789 5788 5786 5785 5784 5782 5781 5779 5777 5776 5774 5772 5771 5769 5768 5766 5764 5762 5761 5759 5757 5755 5753 5752 5751 5749 5748 5746 5745 5743 5742 5741 5741 5740 5741 5742 5743 5743 5743 5740 5738 5737 5738 5737
5802 5802 5801 5801 5800 5800 5799 5798 5798 5797 5796 5795 5794 5793 5792 5791 5790 5789 5788 5786 5785 5783 5782 5780 5779 5777 5775 5774 5772 5770 5768 5767 5765 5763 5761 5759 5757 5756 5754 5752 5750 5748 5747 5745 5744 5742 5741 5740 5738 5737 5736 5735 5734 5734 5734 5735 5738 5739 5737 5734 5733 5732 5732
5799 5799 5799 5798 5798 5797 5796 5796 5795 5794 5793 5792 5791 5790 5789 5788 5787 5786 5784 5783 5781 5780 5778 5776 5775 5773 5771 5770 5768 5766 5764 5762 5760 5758 5756 5755 5753 5751 5749 5747 5745 5743 5742 5740 5738 5737 5735 5734 5733 5732 5730 5729 5728 5727 5727 5727 5730 5732 5732 5730 5729 5728 5726
5797 5796 5796 5796 5795 5794 5794 5793 5792 5791 5790 5789 5788 5787 5786 5785 5784 5782 5781 5779 5778 5776 5774 5773 5771 5769 5767 5765 5763 5761 5759 5757 5755 5753 5752 5750 5748 5746 5744 5742 5740 5738 5737 5735 5733 5731 5730 5728 5727 5726 5725 5723 5722 5721 5720 5720 5721 5725 5726 5724 5723 5723 5721
5794 5794 5794 5793 5792 5792 5791 5790 5789 5788 5787 5786 5785 5784 5783 5781 5780 5779 5777 5776 5774 5772 5770 5769 5767 5765 5763 5761 5759 5757 5755 5753 5751 5749 5747 5745 5743 5741 5739 5737 5735 5733 5731 5730 5728 5726 5724 5723 5721 5720 5719 5718 5716 5715 5714 5713 5713 5716 5719 5718 5717 5717 5716
5792 5791 5791 5790 5789 5789 5788 5787 5786 5785 5784 5783 5781 5780 5779 5777 5776 5775 5773 5772 5770 5768 5767 5765 5763 5761 5759 5757 5754 5752 5750 5748 5746 5744 5742 5740 5738 5736 5734 5732 5730 5728 5726 5724 5723 5721 5719 5717 5715 5714 5712 5711 5710 5709 5707 5707 5706 5707 5710 5711 5710 5710 5710
5789 5788 5788 5787 5786 5785 5784 5783 5782 5781 5780 5779 5777 5776 5775 5773 5772 5771 5769 5768 5766 5764 5762 5760 5758 5756 5754 5752 5750 5747 5745 5743 5741 5738 5736 5734 5732 5730 5728 5726 5724 5722 5720 5718 5716 5714 5712 5711 5709 5707 5706 5704 5704 5703 5701 5700 5699 5699 5701 5704 5703 5702 5702
5786 5785 5784 5784 5783 5782 5781 5779 5778 5777 5776 5774 5773 5772 5771 5769 5768 5766 5765 5763 5761 5760 5758 5756 5754 5752 5749 5747 5745 5742 5740 5738 5736 5733 5731 5729 5727 5725 5723 5720 5718 5716 5714 5712 5710 5708 5705 5704 5702 5700 5699 5698 5696 5695 5694 5692 5691 5691 5691 5694 5696 5695 5694
5783 5782 5781 5780 5779 5778 5776 5775 5774 5772 5771 5770 5769 5768 5766 5765 5764 5762 5760 5759 5757 5755 5753 5751 5749 5747 5745 5742 5740 5738 5736 5733 5731 5728 5726 5724 5721 5719 5717 5714 5712 5710 5708 5706 5703 5701 5699 5697 5695 5693 5691 5690 5689 5687 5687 5685 5684 5683 5682 5684 5686 5687 5686
5779 5778 5777 5776 5774 5773 5772 5771 5769 5768 5767 5766 5765 5763 5762 5761 5759 5758 5756 5755 5753 5751 5749 5747 5744 5742 5740 5737 5735 5733 5731 5728 5726 5723 5720 5718 5715 5713 5711 5708 5706 5704 5701 5699 5697 5695 5693 5690 5688 5686 5684 5682 5681 5679 5678 5677 5676 5675 5674 5674 5676 5677 5678
5775 5774 5773 5771 5770 5769 5768 5766 5765 5764 5763 5761 5760 5759 5758 5756 5755 5753 5752 5750 5748 5746 5744 5742 5740 5738 5735 5733 5731 5728 5726 5723 5720 5718 5715 5712 5710 5707 5705 5702 5700 5698 5695 5693 5690 5688 5686 5684 5681 5679 5677 5675 5673 5671 5670 5669 5667 5666 5666 5665 5665 5667 5668
5771 5769 5768 5767 5766 5765 5763 5762 5761 5759 5758 5757 5755 5754 5753 5752 5750 5749 5747 5746 5744 5742 5739 5737 5735 5733 5731 5728 5726 5723 5721 5718 5715 5713 5710 5707 5705 5702 5699 5697 5694 5692 5689 5687 5684 5680 5677 5675 5674 5671 5669 5667 5665 5663 5661 5660 5659 5658 5656 5656 5656 5656 5657
5767 5765 5764 5763 5761 5760 5759 5757 5756 5754 5753 5752 5750 5749 5748 5747 5746 5745 5743 5741 5739 5737 5735 5733 5731 5728 5726 5724 5721 5719 5716 5713 5711 5708 5705 5702 5700 5697 5694 5691 5689 5686 5684 5681 5677 5674 5670 5667 5664 5662 5660 5658 5656 5654 5653 5651 5649 5648 5647 5646 5646 5645 5646
5763 5761 5760 5758 5757 5755 5754 5752 5751 5749 5748 5746 5745 5744 5744 5743 5742 5740 5739 5737 5735 5733 5731 5729 5726 5724 5721 5719 5717 5714 5711 5709 5706 5703 5700 5698 5694 5691 5688 5685 5683 5680 5677 5675 5671 5668 5664 5660 5657 5653 5650 5648 5645 5644 5643 5642 5640 5638 5637 5636 5635 5635 5635
5758 5757 5755 5754 5752 5751 5749 5747 5745 5744 5743 5742 5741 5741 5740 5739 5738 5736 5735 5733 5731 5729 5727 5724 5722 5719 5717 5714 5712 5709 5707 5704 5701 5698 5696 5692 5689 5686 5682 5679 5676 5673 5671 5668 5665 5661 5658 5654 5650 5646 5642 5638 5635 5632 5630 5629 5629 5628 5627 5626 5625 5624 5624
5754 5753 5751 5749 5748 5746 5745 5743 5741 5741 5740 5739 5739 5737 5736 5735 5734 5732 5730 5729 5727 5725 5722 5720 5718 5715 5712 5710 5707 5705 5702 5699 5696 5693 5690 5687 5684 5681 5677 5674 5670 5667 5664 5661 5658 5655 5651 5647 5643 5639 5635 5631 5627 5623 5620 5617 5616 5615 5614 5614 5614 5613 5613
5750 5748 5747 5745 5744 5742 5741 5740 5739 5738 5737 5736 5735 5734 5732 5731 5729 5728 5726 5725 5723 5720 5718 5716 5713 5711 5708 5705 5702 5700 5697 5694 5691 5688 5685 5682 5679 5675 5672 5669 5665 5661 5658 5655 5652 5648 5644 5640 5636 5632 5627 5623 5619 5615 5611 5608 5605 5602 5601 5600 5600 5601 5601
5745 5744 5743 5741 5740 5739 5738 5737 5735 5734 5733 5732 5731 5730 5728 5727 5725 5724 5722 5720 5718 5716 5714 5711 5709 5706 5704 5701 5698 5695 5692 5689 5686 5683 5680 5678 5674 5670 5667 5664 5660 5656 5653 5649 5645 5642 5637 5633 5629 5624 5619 5614 5610 5605 5601 5598 5595 5591 5589 5586 5585 5586 5587
5741 5740 5739 5738 5736 5735 5734 5733 5732 5731 5730 5729 5728 5726 5725 5723 5722 5720 5718 5716 5714 5712 5710 5707 5705 5702 5699 5696 5694 5691 5688 5685 5682 5679 5676 5672 5669 5665 5661 5658 5654 5650 5646 5642 5639 5634 5630 5626 5621 5616 5610 5605 5600 5595 5590 5586 5583 5580 5578 5574 5572 5570 5571
5737 5736 5735 5734 5733 5732 5731 5730 5729 5728 5727 5725 5724 5723 5722 5720 5718 5716 5714 5712 5710 5708 5706 5703 5701 5698 5695 5692 5689 5686 5683 5680 5677 5674 5670 5667 5664 5660 5655 5652 5648 5644 5640 5636 5632 5627 5623 5618 5612 5607 5602 5596 5591 5585 5580 5574 5570 5567 5564 5562 5559 5557 5556
5734 5733 5732 5731 5730 5729 5728 5727 5726 5725 5724 5722 5721 5720 5718 5716 5715 5713 5710 5708 5706 5704 5702 5699 5697 5694 5691 5688 5685 5682 5679 5676 5673 5669 5666 5662 5659 5655 5651 5646 5642 5638 5634 5629 5625 5621 5616 5610 5605 5599 5593 5587 5581 5575 5569 5563 5558 5554 5550 5547 5545 5543 5542
5731 5730 5729 5728 5727 5726 5725 5724 5723 5722 5721 5719 5718 5716 5715 5713 5711 5709 5707 5705 5703 5700 5698 5696 5693 5691 5688 5685 5682 5678 5675 5672 5668 5665 5661 5657 5654 5650 5647 5642 5638 5633 5629 5624 5619 5614 5609 5603 5597 5591 5584 5578 5571 5564 5558 5553 5548 5544 5540 5536 5534 5532 5530
5728 5727 5726 5725 5724 5723 5722 5721 5720 5719 5718 5716 5715 5713 5711 5709 5707 5706 5704 5702 5699 5697 5695 5692 5690 5687 5684 5681 5678 5675 5671 5668 5664 5661 5657 5654 5650 5646 5642 5638 5634 5629 5624 5618 5613 5607 5602 5596 5589 5582 5575 5568 5561 5555 5549 5544 5541 5537 5533 5530 5528 5525 5521
5724 5723 5723 5722 5721 5720 5719 5718 5717 5716 5714 5713 5711 5710 5708 5706 5704 5702 5701 5699 5696 5694 5692 5689 5687 5684 5681 5678 5675 5671 5668 5664 5661 5657 5654 5650 5647 5643 5638 5634 5629 5624 5619 5613 5607 5601 5595 5588 5581 5573 5565 5558 5552 5548 5544 5539 5535 5531 5528 5526 5524 5520 5517
5721 5721 5720 5719 5718 5717 5716 5715 5714 5712 5711 5710 5708 5707 5705 5703 5701 5699 5697 5696 5693 5691 5689 5686 5683 5681 5678 5674 5671 5668 5664 5661 5657 5654 5651 5647 5643 5639 5634 5630 5625 5620 5614 5608 5602 5595 5588 5581 5574 5566 5558 5550 5546 5543 5539 5536 5531 5527 5525 5524 5520 5516 5513
5718 5718 5717 5716 5715 5714 5713 5712 5711 5709 5708 5707 5705 5703 5702 5700 5698 5697 5695 5692 5690 5688 5685 5683 5680 5678 5674 5671 5668 5664 5661 5657 5654 5651 5647 5644 5639 5635 5630 5626 5621 5615 5609 5603 5597 5590 5583 5576 5569 5561 5552 5546 5542 5540 5536 5532 5528 5525 5524 5521 5518 5514 5511
5715 5715 5714 5713 5712 5711 5710 5709 5708 5706 5705 5704 5702 5701 5699 5697 5696 5694 5692 5689 5687 5685 5682 5680 5677 5674 5671 5667 5664 5661 5657 5654 5651 5647 5644 5640 5635 5631 5626 5622 5617 5611 5606 5600 5594 5587 5580 5572 5564 5556 5549 5544 5541 5538 5535 5531 5527 5524 5522 5519 5516 5512 5510
5712 5712 5711 5710 5709 5708 5707 5706 5705 5703 5702 5701 5699 5698 5696 5694 5693 5691 5688 5686 5684 5681 5679 5676 5673 5670 5667 5664 5660 5657 5654 5651 5648 5644 5640 5636 5632 5628 5623 5619 5614 5609 5603 5597 5591 5584 5577 5569 5561 5553 5547 5542 5540 5537 5534 5531 5527 5524 5521 5518 5515 5512 5510